Regional Weather Roundup
Issued by NWS

Home | Current Version | Previous Version | Graphics & Text | Print | Product List | Glossary On
Versions: 1 2 3 4 5 6 7 8 9 10 11 12 13 14 15 16 17 18 19 20 21 22 23 24 25 26 27 28 29 30 31 32 33 34 35 36 37 38 39 40 41 42 43 44 45 46 47 48 49 50
000
ASUS44 KMEG 031600
RWRTN
TENNESSEE HOURLY STATE WEATHER ROUNDUP
NATIONAL WEATHER SERVICE MEMPHIS TN
1100 AM CDT SUN MAY 03 2015

TNZ002-004-019-021-049-052-054-088>092-031700-
WEST TENNESSEE

CITY           SKY/WX    TMP DP  RH WIND       PRES   REMARKS
MEMPHIS INTL   PTSUNNY   77  51  40 S7        30.13R
NWS MEMPHIS      N/A    N/A N/A N/A MISG        N/A
JACKSON        MOSUNNY   75  49  39 S8        30.13S
DYERSBURG      MOSUNNY   75  43  31 S7        30.13S
PARIS          SUNNY     73  50  43 S7        30.14R
LEXINGTON      SUNNY     73  50  43 S7        30.14R
$$

TNZ008-025-027-028-033-062-065-066-031700-
NORTH MIDDLE TENNESSEE

CITY           SKY/WX    TMP DP  RH WIND       PRES   REMARKS
NASHVILLE      MOSUNNY   76  51  41 S5        30.15S
CLARKSVILLE    SUNNY     74  50  42 S8        30.14R
COOKEVILLE     SUNNY     75  54  46 VRB5      30.16S
CROSSVILLE     PTSUNNY   69  43  38 S6        30.20R
$$

TNZ061-075-076-078-094-096-097-031700-
SOUTH MIDDLE TENNESSEE

CITY           SKY/WX    TMP DP  RH WIND       PRES   REMARKS
FAYETTEVILLE   SUNNY     72  48  43 SW6       30.17S
TULLAHOMA      SUNNY     73  46  38 VRB6      30.18S
WINCHESTER     SUNNY     73  48  40 SW9       30.17S
MCMINNVILLE    SUNNY     73  54  49 VRB6      30.17S
COLUMBIA       PTSUNNY   75  54  46 SW5       30.14S
SHELBYVILLE    SUNNY     75  55  50 S7        30.17S
$$

TNZ017-018-042-046-047-031700-
NORTHEAST TENNESSEE

CITY           SKY/WX    TMP DP  RH WIND       PRES   REMARKS
TRI CITIES     MOSUNNY   71  43  36 VRB3      30.20F
ELIZABETHTON   SUNNY     72  39  30 S3        30.19F
$$

TNZ012-013-036-069-073-074-031700-
CENTRAL EAST TENNESSEE

CITY           SKY/WX    TMP DP  RH WIND       PRES   REMARKS
KNOXVILLE      MOSUNNY   70  49  47 CALM      30.18
OAK RIDGE      SUNNY     72  48  42 E5        30.19F
GATLINBURG     SUNNY     70  48  46 CALM      30.18S
$$

TNZ083-085-099-031700-
SOUTHEAST TENNESSEE

CITY           SKY/WX    TMP DP  RH WIND       PRES   REMARKS
CHATTANOOGA    MOSUNNY   74  53  48 CALM      30.19S
$$

SKY/WX REPORTED AS FAIR MEANS FEW OR NO CLOUDS BELOW
12 THOUSAND FEET.




USA.gov is the U.S. government's official web portal to all federal, state and local government web resources and services.